Regional Weather Roundup
Issued by NWS

Home | Current Version | Previous Version | Graphics & Text | Print | Product List | Glossary Off
Versions: 1 2 3 4 5 6 7 8 9 10 11 12 13 14 15 16 17 18 19 20 21 22 23 24 25 26 27 28 29 30 31 32 33 34 35 36 37 38 39 40 41 42 43 44 45 46 47 48 49 50

000
ASUS43 KMKX 272110
RWRWI

WISCONSIN REGIONAL WEATHER ROUNDUP
NATIONAL WEATHER SERVICE MILWAUKEE/SULLIVAN WI
400 PM CDT FRI MAR 27 2015

NOTE: "FAIR" INDICATES FEW OR NO CLOUDS BELOW 12,000 FEET WITH NO
SIGNIFICANT WEATHER AND/OR OBSTRUCTIONS TO VISIBILITY.

WIZ001-002-006>008-014>016-023>028-272200-
NORTHWEST WISCONSIN

CITY           SKY/WX    TMP DP  RH WIND       PRES   REMARKS
SUPERIOR ARPT  SUNNY     31  10  41 NE10      30.19S WCI  22
ASHLAND        SUNNY     30  11  45 NE13      30.19F WCI  20
HAYWARD        SUNNY     32   4  30 S3        30.13F
SIREN          SUNNY     34   1  23 SW6       30.15F WCI  29
CUMBERLAND     SUNNY     32   3  29 CALM      30.14F
RICE LAKE      SUNNY     33   4  30 CALM      30.17F
CHETEK         SUNNY     33   6  31 CALM      30.16F
LADYSMITH      SUNNY     33   6  32 CALM      30.15F
EAU CLAIRE     SUNNY     35   5  28 N6        30.16F WCI  30
MENOMONIE      SUNNY     35   2  25 CALM      30.17F
NEW RICHMOND   SUNNY     34   2  26 CALM      30.16F
OSCEOLA        SUNNY     35   4  27 E3        30.19F
$$

WIZ003>005-009-010-017-018-272200-
NORTH CENTRAL WISCONSIN

CITY           SKY/WX    TMP DP  RH WIND       PRES   REMARKS
MANITOWISH WTR SUNNY     30   5  35 NE7       30.11F WCI  23
ARBOR VITAE    SUNNY     29   2  31 NW6       30.11F WCI  23
WOODRUFF       SUNNY     29   2  31 NW6       30.11F WCI  23
RHINELANDER    SUNNY     28  -1  28 VRB3      30.11F
EAGLE RIVER    SUNNY     28  -5  24 NW7       30.11S WCI  20
LAND O LAKES   SUNNY     28  -4  25 NW7       30.12S WCI  20
PHILLIPS       SUNNY     32   5  32 NW5       30.11F WCI  27
TOMAHAWK       SUNNY     31   1  28 CALM      30.13S
MEDFORD        SUNNY     29   5  35 CALM      30.12F
MERRILL        SUNNY     30   1  29 N7        30.13S WCI  23
$$

WIZ029-030-035-036-043>047-272200-
CENTRAL WISCONSIN

CITY           SKY/WX    TMP DP  RH WIND       PRES   REMARKS
WAUSAU         SUNNY     30   4  33 VRB5      30.13F WCI  25
MOSINEE        SUNNY     30   7  37 N8        30.15F WCI  23
MARSHFIELD     SUNNY     32   7  35 N6        30.15F WCI  26
STEVENS POINT  SUNNY     29   3  33 NE6       30.15F WCI  23
WAUPACA        SUNNY     34  -1  23 CALM      30.17F
WAUTOMA        SUNNY     33   1  25 SE5       30.16F WCI  28
WISC RAPIDS    SUNNY     32   4  30 N7        30.18F WCI  26
CAMP DOUGLAS   SUNNY     35   4  27 NW6       30.15F WCI  30
$$

WIZ011>013-019>022-031-037>040-048>050-272200-
NORTHEAST WISCONSIN

CITY           SKY/WX    TMP DP  RH WIND       PRES   REMARKS
ANTIGO         SUNNY     28   3  35 CALM      30.12F
SHAWANO        SUNNY     33   2  27 E6        30.16F WCI  28
OCONTO         SUNNY     26  11  52 E10       30.19S WCI  16
STURGEON BAY   SUNNY     25   7  46 N9        30.20F WCI  15
GREEN BAY      SUNNY     29   8  41 MISG      30.18F
MANITOWOC      SUNNY     26   7  44 N13G31    30.18F WCI  15
APPLETON       SUNNY     28   1  31 N7        30.17F WCI  21
CLINTONVILLE   SUNNY     32   0  25 N7        30.16S WCI  26
OSHKOSH        SUNNY     28   7  41 E8        30.17S WCI  20
$$

WIZ032>034-041-042-053>061-272200-
SOUTHWEST WISCONSIN

CITY           SKY/WX    TMP DP  RH WIND       PRES   REMARKS
LA CROSSE      SUNNY     36   9  32 VRB6      30.18F WCI  31
SPARTA         SUNNY     35   4  27 S5        30.17F WCI  31
VIROQUA        SUNNY     31   9  39 CALM      30.15F
BOSCOBEL       SUNNY     33   9  36 W7        30.18F WCI  27
PRAIRIE DU CHI SUNNY     32   5  31 W3        30.19F
PLATTEVILLE    SUNNY     31  11  42 W9        30.17S WCI  23
$$

WIZ056-057-062-063-064-067-068-272200-
SOUTH CENTRAL WISCONSIN

CITY           SKY/WX    TMP DP  RH WIND       PRES   REMARKS
REEDSBURG      SUNNY     33   3  28 N8        30.15F WCI  26
BARABOO/DELLS  SUNNY     33   2  27 CALM      30.14F
LONE ROCK      SUNNY     35   5  28 NW8       30.17F WCI  29
MINERAL POINT  SUNNY     32   7  34 NW7       30.15S WCI  26
MADISON        SUNNY     34   5  29 N13       30.15F WCI  25
MIDDLETON      SUNNY     35   4  28 N7        30.16S WCI  29
WATERTOWN      SUNNY     31   7  35 N12G18    30.16R WCI  22
MONROE         SUNNY     32   9  37 N9G17     30.14F WCI  24
JANESVILLE     SUNNY     34   3  27 NW12G17   30.15F WCI  25
$$

WIZ051-052-058>065-066-070>072-272200-
SOUTHEAST WISCONSIN

CITY           SKY/WX    TMP DP  RH WIND       PRES   REMARKS
MILWAUKEE      MOSUNNY   28  12  51 NE17G25   30.17S WCI  16
WAUKESHA       MOSUNNY   28   5  37 NW10G18   30.15F WCI  19
MILWAUKEE/TIMM SUNNY     28   9  43 NE14G20   30.17S WCI  17
RACINE         SUNNY     27  13  55 NE17G24   30.18S WCI  14
BURLINGTON     SUNNY     30   5  34 N7G16     30.14S WCI  23
KENOSHA        SUNNY     29  13  51 N8G21     30.15F WCI  21
FOND DU LAC    SUNNY     30   6  36 N12G18    30.18S WCI  20
SHEBOYGAN      SUNNY     28  10  46 NE10      30.17F WCI  19
WEST BEND      SUNNY     30   3  31 NE13      30.15S WCI  20
JUNEAU         SUNNY     30   6  37 N13       30.17S WCI  20
$$

LSZ147-162-272200-
LAKE SUPERIOR

STATION/POSITION TIME  TEMP    WIND        PRES    WAVE
                       AIR SEA DIR/SP/G            HT/PER
                 (UTC) (F)     (DEG/KT/KT) (MB)    (FT/S)
DEVILS ISLAND    2100   22     100/ 10/ 11 1024.5F
PORT WING        2000   25      40/  7/  8 1023.4F
SAXON HARBOR     2000   23      20/  5/  8 1023.7F
$$

LMZ867-665-643>646-272200-
LAKE MICHIGAN

STATION/POSITION TIME  TEMP    WIND        PRES    WAVE
                       AIR SEA DIR/SP/G            HT/PER
                 (UTC) (F)     (DEG/KT/KT) (MB)    (FT/S)
NORTHPORT PIER   2015   21      10/ 13/ 19 1022.7F
SISTER BAY       2002   28      20/ 13/ 18   N/A
KEWAUNEE LAKESHO 2000   24      40/ 10/ 17 1021.7
SHEBOYGAN LAKESH 2100   23      20/ 17/ 19 1023.4F
PORT WASHINGTON  2000   26      40/ 16/ 19 1022.7
MILWAUKEE LAKESH 2000   24      30/ 17/ 19   N/A
KENOSHA   LAKESH 2100   24      20/ 20/ 23 1021.3S
$$

TC  - TEMPERATURE IN CELSIUS
VSB - VISIBILITY IN STATUTE MILES
WCI - WIND CHILL INDEX
HX  - HEAT INDEX




USA.gov is the U.S. government's official web portal to all federal, state and local government web resources and services.